AirNav   Air Wisconsin pilot careers
 
 670 users online  

NC18 Rat Landing Seaplane Base
Ahoskie, North Carolina, USA

GOING TO AHOSKIE?


FAA INFORMATION EFFECTIVE 18 JULY 2019

Location

FAA Identifier: NC18
Lat/Long: 36-23-22.0000N / 076-54-41.0000W
36-23.366667N / 076-54.683333W
36.3894444 / -76.9113889
(estimated)
Elevation: 14 ft. / 4 m (estimated)
From city: 7 miles NE of AHOSKIE, NC
Time zone: UTC -4 (UTC -5 during Standard Time)
Zip code: 27986

Seaplane Base Operations

Seaplane Base use: Private use. Permission required prior to landing
Activation date: 12/2010
Control tower: no
ARTCC: WASHINGTON CENTER
FSS: RALEIGH FLIGHT SERVICE STATION
Attendance: UNATNDD
Segmented circle: no

Seaplane Base Communications

WX AWOS-3 at ASJ (14 nm SW): 119.075 (252-345-2967)
WX AWOS-3PT at FKN (19 nm N): 124.675 (757-562-8765)

Nearby radio navigation aids

VOR radial/distance  VOR name  Freq  Var
CVIr306/2.2COFIELD VORTAC114.6009W
FKNr175/20.1FRANKLIN VORTAC110.6009W
ECGr290/36.4ELIZABETH CITY VOR/DME112.5007W

 
NDB name  Hdg/Dist  Freq  Var  ID
WOODVILLE294/30.625410WLLW .-.. .-.. .--
WAKEFIELD184/35.927411WAKQ .- -.- --.-

Seaplane Base Services

Fuel available: 100LL

Runway Information

Runway 12W/30W

Dimensions: 7300 x 500 ft. / 2225 x 152 m
Surface: water
RUNWAY 12W  RUNWAY 30W
Traffic pattern: leftleft

Seaplane Base Ownership and Management from official FAA records

Ownership: Privately-owned
Owner: HENRY JOYNER
327B TUSCARORA RD
WINTON, NC 27986
Phone 252-395-0822
Manager: HENRY JOYNER
327B TUSCARORA RD
WINTON, NC 27986
Phone 252-395-0822

Seaplane Base Operational Statistics

Aircraft based on the field: 1
Single engine airplanes: 1
    
Aircraft operations: avg 25/month *
98% transient general aviation
2% military
* for 12-month period ending 25 January 2009

Additional Remarks

FOR CD CTC WASHINGTON ARTCC AT 703-771-3587.

Instrument Procedures

There are no published instrument procedures at NC18.

Some nearby airports with instrument procedures:

KASJ - Tri-County Airport (14 nm SW)
KFKN - Franklin Municipal-John Beverly Rose Airport (19 nm N)
KSFQ - Suffolk Executive Airport (23 nm NE)
KEDE - Northeastern Regional Airport (27 nm SE)
KPVG - Hampton Roads Executive Airport (32 nm NE)
 
Loc | Ops | Rwys | IFR | FBO | Links
Com | Nav | Svcs | Stats | Notes
Aerial photo
No photo
 
Sectional chart

 
Airport distance calculator
Flying to Rat Landing Seaplane Base? Find the distance to fly.

From to NC18

Sunrise and sunset
Times for 22-Jul-2019
 Local
(UTC-4)
 Zulu
(UTC)
Morning civil twilight05:3809:38
Sunrise06:0710:07
Sunset20:2100:21
Evening civil twilight20:5000:50

Current date and time
Zulu (UTC)  22-Jul-2019 04:42:07
Local (UTC-4)  22-Jul-2019 00:42:07
 
METAR
KASJ 
14nm SW 
220400Z AUTO 19003KT 10SM CLR 27/23 A2994 RMK AO2 T02690233
KFKN 
19nm N 
220415Z AUTO 22005KT 10SM CLR 29/23 A2993 RMK AO2 T02890232
KSFQ 
23nm NE 
220415Z AUTO 00000KT 10SM CLR 28/23 A2993 RMK AO2 T02840232
TAF
KECG 
36nm E 
211720Z 2118/2218 24012G18KT P6SM SCT050 FM220000 23009KT P6SM SKC
KNGU 
44nm NE 
2123/2223 22010KT 9999 VCTS FEW030CB SCT250 QNH2982INS FM220200 22010KT 9999 FEW030 SCT250 QNH2981INS BECMG 2211/2213 23015G22KT 9999 FEW050 FEW250 QNH2980INS BECMG 2220/2222 23012G20KT 9999 VCSH FEW030 SCT050 SCT250 QNH2978INS T27/2209Z T36/2218Z FN00182
NOTAMs
Click for the latest NOTAMs
NOTAMs are issued by the DoD/FAA and will open in a separate window not controlled by AirNav.

 

 
 

Would you like to see your business listed on this page?

 If your business provides an interesting product or service to pilots, flight crews, aircraft, or users of the Rat Landing Seaplane Base, you should consider listing it here.  To start the listing process, click on the button below
 
Add a business
 

Other Pages about Rat Landing Seaplane Base

Update a link
 
Copyright © AirNav, LLC. All rights reserved. Privacy Policy  Contact